Find Starlink 11182

NORAD ID: 60399 Int'l Des: 2024-141 Owner: SPXS Country: US Constellation: starlink operational
LEOCIRCULAR

实时位置

正在加载3D地球...

关于 Starlink 11182

正在加载描述...

即将过境

Passes for default location (London). Set your location on the main map for personalized predictions.

高度历史

Loading altitude history...

两行轨道根数

1 60399U 24141B 26125.41041058 .00001902 00000-0 20562-4 0 9999
2 60399 53.1609 166.4949 0001865 80.0583 280.0645 15.69711530100651
Epoch: May 5, 2026 • Age: 15 hours

当前状态

高度 372.9 km
速度 7.69 km/s
星下点 -38.01°S, 109.88°W
发射日期 Aug 10, 2024
运行时间 1.7 years
类型 internet

技术详情

分类 Payload
质量 960.00 kg
干质量 910.00 kg
总质量 960.00 kg
长度 0.30 m
直径 4.10 m
跨度 29.00 m
形状 Box + pan
制造商 SPXS
平台类型 Starlink V2MD
阶段状态 In Orbit
所有者/国家 SPXS/US

Most Searched